PROBA-1 1 26958U 01049B 26174.97343321 .00002383 00000+0 15590-3 0 9994 2 26958 97.9600 183.7424 0056294 99.6694 261.0898 15.07518001344644 CUTE-1 (CO-55) 1 27844U 03031E 26174.92147486 .00000225 00000+0 11608-3 0 9990 2 27844 98.6736 183.3957 0009929 158.9265 201.2325 14.24339204192635 CUBESAT XI-IV (CO-57) 1 27848U 03031J 26173.99963119 .00000177 00000+0 96661-4 0 9998 2 27848 98.6767 182.1936 0009423 179.7329 180.3856 14.23623408192208 APRIZESAT 4 1 35684U 09041D 26174.93276095 .00000496 00000+0 65925-4 0 9990 2 35684 98.1410 250.3877 0042066 300.6300 59.0768 14.83886561912369 APRIZESAT 3 1 35686U 09041F 26174.92015970 .00001262 00000+0 11334-3 0 9990 2 35686 98.2074 328.4667 0062695 45.8741 314.7612 14.96261726917389 PROBA-2 1 36037U 09059B 26174.91169939 .00000152 00000+0 45967-4 0 9991 2 36037 98.2453 358.1712 0011950 259.0416 100.9437 14.54864815882505 APRIZESAT 5 1 37792U 11044E 26174.56042540 .00000795 00000+0 10765-3 0 9996 2 37792 98.2451 107.7814 0051810 343.7935 16.1617 14.81087337799735 APRIZESAT 6 1 37793U 11044F 26174.71181382 .00000570 00000+0 87602-4 0 9998 2 37793 98.2358 85.3444 0044380 65.7980 320.0108 14.76924027798110 PROBA-V 1 39159U 13021A 26174.93677435 .00000068 00000+0 47646-4 0 9992 2 39159 98.3587 153.2103 0005359 107.9148 252.2616 14.23598267682070 APRIZESAT 7 1 39416U 13066A 26174.86247413 .00000679 00000+0 72597-4 0 9999 2 39416 97.7710 127.9864 0035555 186.6887 173.3862 14.91574895682223 APRIZESAT 8 1 39425U 13066K 26174.59851086 .00000650 00000+0 76398-4 0 9998 2 39425 97.8221 121.9770 0044328 264.7331 94.8826 14.87662141680627 BUGSAT-1 (TITA) 1 40014U 14033E 26174.90245073 .00003792 00000+0 20142-3 0 9992 2 40014 98.0425 267.8443 0028603 155.4759 204.7840 15.15646675656859 SAUDISAT 4 1 40016U 14033G 26174.94942153 .00000503 00000+0 72862-4 0 9995 2 40016 97.7591 320.8503 0045896 52.6176 307.9202 14.79552087647076 APRIZESAT 9 1 40018U 14033J 26174.92715055 .00000598 00000+0 95171-4 0 9996 2 40018 97.9068 307.9613 0066228 177.4561 182.6998 14.74222715644550 APRIZESAT 10 1 40019U 14033K 26174.31714270 .00000376 00000+0 67158-4 0 9996 2 40019 97.9656 301.1401 0077460 253.9148 105.3520 14.70887230643159 TECHDEMOSAT-1 (TDS-1) 1 40076U 14037H 26174.96889262 .00006720 00000+0 38081-3 0 9999 2 40076 98.3818 167.8541 0004770 234.3530 125.7254 15.13379775649256 TECHNOSAT 1 42829U 17042E 26174.69860246 .00002377 00000+0 17104-3 0 9994 2 42829 97.4297 332.1091 0019341 74.0242 286.3114 15.04995655487688 FLYING LAPTOP 1 42831U 17042G 26174.98452175 .00002778 00000+0 22024-3 0 9999 2 42831 97.4717 330.2569 0019847 99.7929 260.5538 15.01183593487472 HAWK-A 1 43765U 18099H 26174.12355058 .00004754 00000+0 19230-3 0 9998 2 43765 97.3911 226.2820 0033091 263.8806 95.8661 15.24699739414007 HAWK-B 1 43794U 18099AN 26174.87494427 .00004878 00000+0 20866-3 0 9990 2 43794 97.3962 226.4246 0030244 280.1579 79.6247 15.22885507414058 HAWK-C 1 43799U 18099AT 26174.87240004 .00006383 00000+0 23011-3 0 9993 2 43799 97.3890 227.9664 0038742 261.0317 98.6537 15.28181088414931 SALSAT 1 46495U 20068K 26174.94794518 .00006604 00000+0 23097-3 0 9990 2 46495 97.8854 178.4244 0007791 279.3385 80.6973 15.29881721316391 HAWK-2C 1 47502U 21006CT 26174.86806659 .00005521 00000+0 16619-3 0 9993 2 47502 97.2278 219.0447 0007446 163.0933 197.0560 15.34731791300527 HAWK-2A 1 47505U 21006CW 26174.87049423 .00005537 00000+0 16661-3 0 9999 2 47505 97.2322 219.7288 0006892 165.8384 194.3054 15.34746435300523 HAWK-2B 1 47508U 21006CZ 26174.86562916 .00006310 00000+0 18895-3 0 9999 2 47508 97.2191 218.0448 0007473 164.6833 195.4638 15.34843710300526 HAWK-3B 1 48931U 21059BE 26174.50747162 .00036033 00000+0 30003-3 0 9997 2 48931 97.6661 11.8156 0003074 296.9319 63.1628 15.70041430278847 HAWK-3C 1 48948U 21059BX 26174.82582263 .00037262 00000+0 30977-3 0 9994 2 48948 97.6781 17.8613 0003393 297.4235 62.6681 15.70072011278896 HAWK-3A 1 48957U 21059CG 26174.50699474 .00035063 00000+0 29205-3 0 9991 2 48957 97.6722 14.7115 0003300 301.4845 58.6093 15.70037739278840 HAWK-5C 1 52754U 22057Y 26174.94520237 .00016567 00000+0 28077-3 0 9992 2 52754 97.6601 335.0489 0004530 62.0524 298.1186 15.51600574227399 HAWK-5B 1 52756U 22057AA 26174.94504375 .00016758 00000+0 28393-3 0 9992 2 52756 97.6613 333.3988 0005196 54.5898 305.5839 15.51603042227399 HAWK-5A 1 52757U 22057AB 26174.94484206 .00016523 00000+0 28000-3 0 9998 2 52757 97.6610 334.2299 0005098 57.5014 302.6730 15.51601335227397 HAWK-6B 1 55324U 23011A 26174.87174021 .00003906 00000+0 17081-3 0 9993 2 55324 40.4998 313.0823 0001381 61.8323 298.2626 15.22985132188865 HAWK-6C 1 55326U 23011C 26174.80552218 .00003750 00000+0 16434-3 0 9994 2 55326 40.4985 310.3069 0002187 44.2051 315.8933 15.22979342188866 HAWK-6A 1 55327U 23011D 26174.80556685 .00003898 00000+0 17050-3 0 9995 2 55327 40.4996 311.9319 0001866 36.9635 323.1303 15.22982515188862 HAWK-7A 1 56191U 23054P 26174.92377038 .00004605 00000+0 17424-3 0 9990 2 56191 97.2701 62.0895 0003824 42.2310 317.9223 15.27419576178054 HAWK-7B 1 56193U 23054R 26174.92369498 .00004683 00000+0 17717-3 0 9994 2 56193 97.2727 60.3560 0003363 56.4827 303.6733 15.27418046178051 HAWK-7C 1 56200U 23054Y 26174.92357869 .00004557 00000+0 17249-3 0 9992 2 56200 97.2703 61.1224 0003236 47.3288 312.8224 15.27418645178051